Location: Cedar Brake
(32.2526°N, 97.8459°W)
Time: 20:22:24
(UTC+00:00)

Meteor 1-11 Rocket - Pass Details

Date: 22 April 2026
Orbit: 830 x 914 km, 81.2° (Epoch: 21 May)

Event Time Altitude Azimuth Distance (km) Brightness Sun altitude
Rises 09:53:42 0° 342° (NNW) 3,515 7.1 -24.0°
Reaches altitude 10° 09:56:19 10° 336° (NNW) 2,560 6.3 -23.6°
Enters shadow 10:01:13 39° 280° (W) 1,285 4.3 -22.7°
